�������l�o���
Date,Time,MP-1(��Sv/h),MP-2(��Sv/h),MP-3(��Sv/h),MP-4(��Sv/h),MP-5(��Sv/h),MP-6(��Sv/h),MP-7(��Sv/h),MP-8(��Sv/h),����,����(m/s),���J
2019/01/10,00:00,0.786,1.179,0.824,1.507,1.072,0.449,0.797,0.756,���k��,2.2,��
2019/01/10,00:10,0.783,1.177,0.823,1.506,1.072,0.448,0.798,0.758,�k��,2.0,��
2019/01/10,00:20,0.787,1.179,0.823,1.505,1.072,0.452,0.798,0.756,�k��,2.3,��
2019/01/10,00:30,0.785,1.177,0.822,1.507,1.074,0.450,0.797,0.757,�k��,2.3,��
2019/01/10,00:40,0.787,1.177,0.824,1.504,1.071,0.451,0.796,0.757,���k��,3.0,��
2019/01/10,00:50,0.787,1.178,0.826,1.505,1.072,0.449,0.797,0.756,���k��,4.9,��
2019/01/10,01:00,0.785,1.176,0.825,1.508,1.073,0.450,0.797,0.757,���k��,4.1,��
2019/01/10,01:10,0.786,1.178,0.826,1.509,1.074,0.448,0.797,0.758,���k��,3.9,��
2019/01/10,01:20,0.789,1.179,0.827,1.506,1.072,0.449,0.797,0.759,���k��,2.3,��
2019/01/10,01:30,0.786,1.179,0.823,1.508,1.074,0.450,0.798,0.757,���k��,2.5,��
2019/01/10,01:40,0.786,1.177,0.827,1.506,1.070,0.452,0.796,0.758,���k��,2.8,��
2019/01/10,01:50,0.785,1.178,0.825,1.506,1.073,0.449,0.797,0.755,��,2.8,��
2019/01/10,02:00,0.788,1.178,0.826,1.506,1.074,0.450,0.797,0.755,��,2.6,��
2019/01/10,02:10,0.784,1.179,0.824,1.507,1.071,0.448,0.797,0.756,���k��,2.5,��
2019/01/10,02:20,0.787,1.178,0.824,1.505,1.073,0.450,0.796,0.756,���k��,4.1,��
2019/01/10,02:30,0.786,1.178,0.826,1.507,1.074,0.451,0.799,0.758,���k��,5.3,��
2019/01/10,02:40,0.785,1.180,0.827,1.507,1.072,0.450,0.797,0.756,���k��,5.9,��
2019/01/10,02:50,0.784,1.178,0.825,1.509,1.073,0.450,0.797,0.757,�k��,5.5,��
2019/01/10,03:00,0.785,1.180,0.826,1.508,1.069,0.449,0.796,0.756,�k��,5.0,��
2019/01/10,03:10,0.785,1.178,0.825,1.505,1.070,0.450,0.797,0.756,�k��,4.1,��
2019/01/10,03:20,0.786,1.177,0.827,1.507,1.071,0.450,0.797,0.756,���k��,5.1,��
2019/01/10,03:30,0.784,1.178,0.826,1.507,1.067,0.449,0.798,0.757,�k��,5.1,��
2019/01/10,03:40,0.784,1.174,0.827,1.509,1.070,0.449,0.796,0.756,���k��,5.1,��
2019/01/10,03:50,0.784,1.178,0.825,1.505,1.072,0.449,0.796,0.757,���k��,4.5,��
2019/01/10,04:00,0.787,1.177,0.824,1.507,1.071,0.451,0.798,0.757,���k��,4.8,��
2019/01/10,04:10,0.785,1.177,0.824,1.504,1.068,0.448,0.797,0.758,���k��,5.4,��
2019/01/10,04:20,0.787,1.176,0.827,1.508,1.071,0.450,0.796,0.757,���k��,6.4,��
2019/01/10,04:30,0.784,1.178,0.827,1.503,1.069,0.451,0.796,0.757,���k��,6.0,��
2019/01/10,04:40,0.786,1.177,0.825,1.508,1.071,0.450,0.798,0.756,���k��,6.1,��
2019/01/10,04:50,0.787,1.179,0.824,1.507,1.069,0.448,0.797,0.756,���k��,6.8,��
2019/01/10,05:00,0.786,1.177,0.825,1.508,1.071,0.450,0.799,0.757,���k��,7.9,��
2019/01/10,05:10,0.785,1.178,0.825,1.506,1.072,0.450,0.797,0.758,��,7.9,��
2019/01/10,05:20,0.786,1.177,0.825,1.505,1.070,0.450,0.798,0.756,��,8.4,��
2019/01/10,05:30,0.789,1.177,0.826,1.506,1.070,0.449,0.798,0.757,��,7.9,��
2019/01/10,05:40,0.787,1.179,0.825,1.506,1.069,0.449,0.797,0.757,��,8.4,��
2019/01/10,05:50,0.787,1.176,0.824,1.505,1.072,0.451,0.798,0.757,��,9.7,��
2019/01/10,06:00,0.786,1.176,0.825,1.505,1.074,0.449,0.799,0.758,��,8.5,��
2019/01/10,06:10,0.789,1.176,0.827,1.503,1.072,0.450,0.797,0.758,��,7.1,��
2019/01/10,06:20,0.788,1.177,0.826,1.506,1.074,0.451,0.798,0.758,��,7.6,��
2019/01/10,06:30,0.785,1.175,0.826,1.507,1.072,0.450,0.801,0.758,��,7.7,��
2019/01/10,06:40,0.788,1.176,0.825,1.508,1.073,0.451,0.799,0.758,��,9.4,��
2019/01/10,06:50,0.788,1.177,0.825,1.508,1.073,0.451,0.801,0.760,���쐼,7.7,��
2019/01/10,07:00,0.786,1.175,0.827,1.510,1.073,0.451,0.800,0.759,��,8.5,��
2019/01/10,07:10,0.786,1.174,0.826,1.508,1.072,0.450,0.799,0.759,��,8.5,��
2019/01/10,07:20,0.786,1.175,0.826,1.509,1.072,0.452,0.800,0.758,��,8.5,��
2019/01/10,07:30,0.786,1.177,0.826,1.507,1.073,0.450,0.802,0.758,��,7.3,��
2019/01/10,07:40,0.789,1.175,0.826,1.509,1.073,0.452,0.799,0.759,��,6.8,��
2019/01/10,07:50,0.787,1.174,0.826,1.507,1.075,0.454,0.801,0.759,���쐼,5.7,��
2019/01/10,08:00,0.788,1.176,0.825,1.511,1.076,0.451,0.799,0.758,��,5.6,��
2019/01/10,08:10,0.788,1.176,0.827,1.510,1.074,0.453,0.800,0.758,��,5.5,��
2019/01/10,08:20,0.788,1.174,0.825,1.510,1.075,0.453,0.801,0.758,��,6.4,��
2019/01/10,08:30,0.788,1.174,0.827,1.510,1.075,0.452,0.800,0.758,���쐼,6.8,��
2019/01/10,08:40,0.787,1.175,0.828,1.510,1.075,0.452,0.800,0.759,��,7.2,��
2019/01/10,08:50,0.789,1.175,0.828,1.511,1.075,0.453,0.801,0.759,��,7.8,��
2019/01/10,09:00,0.789,1.175,0.828,1.511,1.074,0.453,0.800,0.760,���쐼,8.0,��
2019/01/10,09:10,0.790,1.175,0.827,1.510,1.074,0.453,0.800,0.758,��,6.3,��
2019/01/10,09:20,0.788,1.177,0.827,1.510,1.075,0.452,0.799,0.758,��,8.3,��
2019/01/10,09:30,0.790,1.174,0.827,1.509,1.077,0.452,0.800,0.758,��,8.2,��
2019/01/10,09:40,0.791,1.174,0.827,1.510,1.076,0.453,0.799,0.759,��,6.8,��
2019/01/10,09:50,0.792,1.175,0.829,1.512,1.073,0.453,0.798,0.759,��,6.2,��
2019/01/10,10:00,0.792,1.173,0.829,1.511,1.076,0.454,0.798,0.761,��,7.3,��
2019/01/10,10:10,0.790,1.173,0.830,1.509,1.077,0.453,0.800,0.759,��,6.8,��
2019/01/10,10:20,0.791,1.169,0.829,1.511,1.076,0.455,0.798,0.760,��,8.0,��
2019/01/10,10:30,0.790,1.171,0.829,1.510,1.076,0.453,0.798,0.761,��,7.5,��
2019/01/10,10:40,0.790,1.174,0.828,1.511,1.071,0.453,0.799,0.760,��,6.7,��
2019/01/10,10:50,0.789,1.176,0.830,1.510,1.073,0.454,0.797,0.761,��,7.2,��
2019/01/10,11:00,0.790,1.172,0.828,1.512,1.073,0.453,0.799,0.760,���k��,4.6,��
2019/01/10,11:10,0.792,1.176,0.829,1.513,1.072,0.455,0.798,0.761,���k��,4.1,��
2019/01/10,11:20,0.792,1.176,0.830,1.511,1.070,0.454,0.800,0.762,���k��,5.1,��
2019/01/10,11:30,0.791,1.176,0.830,1.513,1.073,0.453,0.799,0.760,���k��,6.7,��
2019/01/10,11:40,0.792,1.176,0.830,1.514,1.075,0.454,0.798,0.759,���k��,6.3,��
2019/01/10,11:50,0.791,1.175,0.831,1.512,1.078,0.453,0.797,0.760,���k��,3.3,��
2019/01/10,12:00,0.791,1.180,0.831,1.511,1.076,0.452,0.798,0.762,��,1.7,��
2019/01/10,12:10,0.793,1.178,0.828,1.515,1.076,0.455,0.797,0.760,��,3.3,��
2019/01/10,12:20,0.792,1.177,0.828,1.512,1.079,0.455,0.798,0.762,��,5.3,��
2019/01/10,12:30,0.790,1.179,0.830,1.510,1.077,0.454,0.799,0.762,��,5.5,��
2019/01/10,12:40,0.793,1.174,0.831,1.514,1.078,0.454,0.800,0.759,���k��,5.9,��
2019/01/10,12:50,0.792,1.176,0.829,1.510,1.075,0.454,0.799,0.762,���k��,4.2,��
2019/01/10,13:00,0.791,1.173,0.829,1.514,1.076,0.454,0.798,0.761,��,2.0,��
2019/01/10,13:10,0.788,1.176,0.829,1.515,1.076,0.454,0.800,0.760,��,2.8,��
2019/01/10,13:20,0.792,1.173,0.827,1.511,1.072,0.453,0.800,0.761,���k��,3.4,��
2019/01/10,13:30,0.792,1.176,0.830,1.514,1.072,0.454,0.800,0.762,���k��,4.2,��
2019/01/10,13:40,0.791,1.175,0.830,1.512,1.078,0.455,0.800,0.761,�k��,4.1,��
2019/01/10,13:50,0.791,1.176,0.831,1.514,1.077,0.453,0.802,0.761,���k��,3.6,��
2019/01/10,14:00,0.792,1.177,0.830,1.512,1.078,0.453,0.802,0.760,���k��,2.2,��
2019/01/10,14:10,0.792,1.177,0.830,1.511,1.078,0.454,0.802,0.760,�k��,3.1,��
2019/01/10,14:20,0.791,1.176,0.829,1.513,1.076,0.452,0.801,0.761,�k��,2.0,��
2019/01/10,14:30,0.794,1.177,0.831,1.514,1.078,0.454,0.801,0.760,�k��,2.6,��
2019/01/10,14:40,0.793,1.176,0.829,1.514,1.076,0.453,0.802,0.762,�k��,3.6,��
2019/01/10,14:50,0.792,1.181,0.833,1.513,1.078,0.453,0.804,0.761,���k��,3.4,��
2019/01/10,15:00,0.792,1.179,0.828,1.511,1.078,0.454,0.803,0.760,���k��,3.1,��
2019/01/10,15:10,0.793,1.179,0.831,1.514,1.078,0.453,0.804,0.761,���k��,3.8,��
2019/01/10,15:20,0.792,1.177,0.832,1.513,1.079,0.452,0.802,0.759,���k��,3.2,��
2019/01/10,15:30,0.794,1.178,0.829,1.514,1.075,0.454,0.802,0.759,�k��,3.3,��
2019/01/10,15:40,0.792,1.179,0.828,1.511,1.078,0.455,0.801,0.760,���k��,2.5,��
2019/01/10,15:50,0.791,1.181,0.831,1.514,1.077,0.454,0.802,0.762,�k��,2.6,��
2019/01/10,16:00,0.792,1.181,0.831,1.511,1.079,0.454,0.804,0.761,�k��,2.6,��
2019/01/10,16:10,0.793,1.181,0.831,1.514,1.075,0.454,0.803,0.760,�k��,1.7,��
2019/01/10,16:20,0.793,1.181,0.831,1.513,1.076,0.456,0.802,0.762,�k��,2.9,��
2019/01/10,16:30,0.792,1.182,0.831,1.512,1.079,0.453,0.800,0.762,�k��,3.2,��
2019/01/10,16:40,0.793,1.181,0.829,1.514,1.079,0.453,0.801,0.759,���k��,3.1,��
2019/01/10,16:50,0.792,1.181,0.831,1.513,1.077,0.452,0.803,0.760,���k��,3.2,��
2019/01/10,17:00,0.795,1.180,0.829,1.513,1.078,0.454,0.804,0.760,���k��,3.6,��
2019/01/10,17:10,0.794,1.182,0.829,1.514,1.077,0.454,0.802,0.758,���k��,3.8,��
2019/01/10,17:20,0.793,1.181,0.831,1.512,1.077,0.455,0.803,0.759,�k��,4.5,��
2019/01/10,17:30,0.791,1.182,0.832,1.515,1.079,0.454,0.802,0.760,�k��,3.7,��
2019/01/10,17:40,0.793,1.181,0.833,1.511,1.077,0.455,0.803,0.760,���k��,2.3,��
2019/01/10,17:50,0.792,1.182,0.831,1.516,1.076,0.454,0.802,0.760,��,2.0,��
2019/01/10,18:00,0.793,1.182,0.832,1.513,1.078,0.455,0.802,0.761,���쐼,1.9,��
2019/01/10,18:10,0.793,1.181,0.830,1.514,1.078,0.454,0.803,0.760,���쐼,1.2,��
2019/01/10,18:20,0.793,1.179,0.831,1.514,1.081,0.454,0.803,0.762,��,3.2,��
2019/01/10,18:30,0.794,1.181,0.831,1.510,1.077,0.454,0.804,0.760,�쐼,3.0,��
2019/01/10,18:40,0.793,1.181,0.830,1.511,1.078,0.454,0.804,0.761,���쐼,4.5,��
2019/01/10,18:50,0.791,1.181,0.830,1.511,1.077,0.455,0.803,0.761,���쐼,4.7,��
2019/01/10,19:00,0.793,1.182,0.827,1.512,1.081,0.454,0.803,0.759,���쐼,3.9,��
2019/01/10,19:10,0.792,1.181,0.825,1.513,1.077,0.455,0.802,0.761,���쐼,4.6,��
2019/01/10,19:20,0.791,1.179,0.828,1.516,1.079,0.453,0.802,0.761,��,4.9,��
2019/01/10,19:30,0.791,1.181,0.827,1.514,1.079,0.454,0.804,0.760,���쐼,3.3,��
2019/01/10,19:40,0.792,1.181,0.826,1.513,1.078,0.454,0.803,0.759,��,4.8,��
2019/01/10,19:50,0.793,1.183,0.826,1.513,1.077,0.454,0.804,0.760,��,5.6,��
2019/01/10,20:00,0.792,1.180,0.827,1.513,1.077,0.454,0.803,0.760,���k��,5.1,��
2019/01/10,20:10,0.793,1.180,0.826,1.514,1.077,0.455,0.802,0.760,���k��,5.7,��
2019/01/10,20:20,0.793,1.181,0.826,1.511,1.078,0.454,0.802,0.760,��,3.3,��
2019/01/10,20:30,0.793,1.181,0.824,1.511,1.077,0.454,0.803,0.760,��,4.1,��
2019/01/10,20:40,0.792,1.181,0.824,1.511,1.076,0.453,0.802,0.760,��,4.7,��
2019/01/10,20:50,0.793,1.179,0.824,1.514,1.078,0.454,0.804,0.759,���쐼,7.3,��
2019/01/10,21:00,0.793,1.182,0.826,1.514,1.079,0.453,0.804,0.760,��,6.9,��
2019/01/10,21:10,0.793,1.180,0.825,1.512,1.079,0.453,0.804,0.759,���쐼,5.1,��
2019/01/10,21:20,0.793,1.183,0.829,1.512,1.080,0.455,0.803,0.759,�쐼,4.3,��
2019/01/10,21:30,0.792,1.180,0.826,1.515,1.078,0.454,0.803,0.761,�쐼,5.9,��
2019/01/10,21:40,0.795,1.181,0.827,1.514,1.078,0.454,0.803,0.760,�쐼,5.8,��
2019/01/10,21:50,0.793,1.180,0.827,1.515,1.077,0.454,0.804,0.761,���쐼,7.2,��
2019/01/10,22:00,0.794,1.180,0.827,1.514,1.078,0.454,0.804,0.761,�쐼,4.8,��
2019/01/10,22:10,0.794,1.180,0.827,1.510,1.079,0.455,0.804,0.760,�쐼,3.6,��
2019/01/10,22:20,0.794,1.183,0.826,1.512,1.077,0.456,0.804,0.759,��쐼,3.7,��
2019/01/10,22:30,0.792,1.179,0.827,1.513,1.077,0.456,0.803,0.761,���쐼,2.8,��
2019/01/10,22:40,0.793,1.180,0.825,1.514,1.078,0.454,0.801,0.760,���쐼,2.9,��
2019/01/10,22:50,0.790,1.181,0.824,1.514,1.077,0.455,0.804,0.760,�쐼,2.8,��
2019/01/10,23:00,0.792,1.181,0.824,1.512,1.076,0.454,0.803,0.761,�쐼,2.5,��
2019/01/10,23:10,0.793,1.182,0.821,1.512,1.078,0.454,0.803,0.759,��쐼,2.2,��
2019/01/10,23:20,0.792,1.182,0.822,1.515,1.079,0.455,0.803,0.760,��쐼,2.6,��
2019/01/10,23:30,0.792,1.180,0.828,1.511,1.078,0.455,0.802,0.759,��쐼,2.8,��
2019/01/10,23:40,0.792,1.180,0.828,1.512,1.075,0.453,0.803,0.762,�쐼,4.2,��
2019/01/10,23:50,0.791,1.182,0.823,1.510,1.077,0.454,0.803,0.758,��,3.2,��
